Simultaneous Nadir Overpasses (SNOs) Predictions

Prediction of SNOs between AQUA and METOP-B Satellite Orbit:

Table of predicted SNOs for the next 14.0 days since TLE Epoch: 10/5/2018
Index Date (AQUA) Time (AQUA) Lat,Lon (AQUA) SZA (AQUA ) Date (METOP-B) Time (METOP-B) Lat,Lon (METOP-B) SZA (METOP-B ) Distance(km) Time Diff (sec)
1 10/07/2018 03:33:53 73.32, 121.83 78.69 10/07/2018 03:32:47 73.30, 119.19 78.72 84.60 66
2 10/07/2018 04:23:31 -73.98, -71.94 100.63 10/07/2018 04:23:16 -73.96, -71.96 100.64 1.98 15
3 10/07/2018 05:13:00 74.04, 95.54 79.46 10/07/2018 05:13:54 74.03, 95.54 79.44 1.92 54
4 10/09/2018 23:08:14 73.63,-172.38 80.07 10/09/2018 23:07:04 73.54,-173.86 80.02 47.43 70
5 10/09/2018 23:57:46 -73.96, -5.48 99.57 10/09/2018 23:57:38 -73.95, -5.57 99.58 3.15 8
6 10/10/2018 00:47:15 74.04, 161.99 80.53 10/10/2018 00:48:16 74.02, 161.93 80.50 2.95 61
7 10/12/2018 18:42:33 73.83,-106.40 81.35 10/12/2018 18:41:21 73.78,-106.89 81.30 16.52 72
8 10/12/2018 19:32:02 -74.00, 60.86 98.47 10/12/2018 19:31:59 -73.99, 60.93 98.49 2.89 3
9 10/12/2018 20:21:29 74.04,-131.57 81.58 10/12/2018 20:22:36 74.06,-131.56 81.60 1.95 67
10 10/15/2018 14:16:49 73.94, -40.20 82.50 10/15/2018 14:15:39 73.92, -40.15 82.48 3.32 70
11 10/15/2018 15:06:16 -74.00, 127.31 97.43 10/15/2018 15:06:20 -73.97, 127.31 97.45 2.92 4
12 10/15/2018 15:55:44 74.04, -65.15 82.63 10/15/2018 15:56:57 74.09, -65.06 82.68 6.10 73
13 10/18/2018 09:51:03 73.90, 26.33 83.49 10/18/2018 09:50:01 73.90, 26.22 83.50 3.29 62
14 10/18/2018 10:40:31 -74.00,-166.26 96.40 10/18/2018 10:40:41 -74.01,-166.19 96.39 2.15 10




NCC Satellite Simultaneous Nadir Overpasses (SNOs) Prediction Service
